When you browse on this site, cookies collect data to enhance your experience and personalize the content and advertising you see.
Visit our Privacy Policy to learn more. By continuing to use the site, you agree to this use of cookies and data.
  • In Romania
  • List of Countries
  • For 7 days
  • Water Temperature
  • Satellite Maps
  • Weather Map
  • Weather Widgets
  • user-avatar
    Login

    Hourly Weather Pogorzala

    Today, 27 June, Thursday

    Time Temperature Precipitation Wind Pressure Humidity
    00:00 +24°C° 0.1 mm 3 mps 731 mmHg 79%
    01:00 +23°C° 0.1 mm 2 mps 731 mmHg 85%
    02:00 +22°C° 0 mm 3 mps 731 mmHg 88%
    03:00 +21°C° 0 mm 3 mps 731 mmHg 90%
    04:00 +21°C° 0 mm 3 mps 732 mmHg 93%
    05:00 +20°C° 0 mm 3 mps 732 mmHg 92%
    06:00 +20°C° 0 mm 4 mps 732 mmHg 90%
    07:00 +20°C° 0 mm 4 mps 732 mmHg 88%
    08:00 +20°C° 0 mm 5 mps 732 mmHg 80%
    09:00 +21°C° 0 mm 5 mps 733 mmHg 71%
    10:00 +21°C° 0 mm 6 mps 733 mmHg 63%
    11:00 +22°C° 0 mm 6 mps 733 mmHg 57%
    12:00 +22°C° 0 mm 6 mps 733 mmHg 52%
    13:00 +23°C° 0 mm 6 mps 733 mmHg 47%
    14:00 +23°C° 0 mm 6 mps 732 mmHg 48%
    15:00 +23°C° 0 mm 6 mps 732 mmHg 49%
    16:00 +23°C° 0 mm 6 mps 732 mmHg 50%
    17:00 +22°C° 0 mm 5 mps 731 mmHg 56%
    18:00 +20°C° 0 mm 4 mps 731 mmHg 62%
    19:00 +19°C° 0 mm 3 mps 731 mmHg 68%
    20:00 +18°C° 0 mm 3 mps 731 mmHg 73%
    21:00 +16°C° 0 mm 3 mps 732 mmHg 78%
    22:00 +14°C° 0 mm 3 mps 732 mmHg 83%
    23:00 +14°C° 0 mm 2 mps 732 mmHg 85%

    Tomorrow, 28 June, Friday

    Time Temperature Precipitation Wind Pressure Humidity
    00:00 +14°C° 0 mm 2 mps 733 mmHg 87%
    01:00 +13°C° 0 mm 2 mps 733 mmHg 89%
    02:00 +13°C° 0 mm 2 mps 733 mmHg 88%
    03:00 +13°C° 0 mm 2 mps 733 mmHg 88%
    04:00 +13°C° 0 mm 2 mps 733 mmHg 88%
    05:00 +14°C° 0 mm 2 mps 733 mmHg 84%
    06:00 +14°C° 0 mm 2 mps 733 mmHg 80%
    07:00 +14°C° 0 mm 3 mps 733 mmHg 77%
    08:00 +16°C° 0 mm 2 mps 733 mmHg 74%
    09:00 +17°C° 0 mm 2 mps 733 mmHg 72%
    10:00 +18°C° 0 mm 2 mps 733 mmHg 70%
    11:00 +19°C° 0 mm 3 mps 733 mmHg 67%
    12:00 +20°C° 0 mm 3 mps 733 mmHg 64%
    13:00 +21°C° 0 mm 4 mps 733 mmHg 61%
    14:00 +21°C° 0 mm 4 mps 733 mmHg 61%
    15:00 +21°C° 0 mm 4 mps 733 mmHg 61%
    16:00 +22°C° 0 mm 4 mps 733 mmHg 62%
    17:00 +21°C° 0.1 mm 3 mps 733 mmHg 67%
    18:00 +20°C° 0.1 mm 3 mps 732 mmHg 72%
    19:00 +19°C° 0.1 mm 2 mps 732 mmHg 77%
    20:00 +18°C° 0 mm 2 mps 733 mmHg 79%
    21:00 +18°C° 0 mm 1 mps 733 mmHg 81%
    22:00 +15°C° 0 mm 1 mps 733 mmHg 83%
    23:00 +15°C° 0 mm 1 mps 733 mmHg 85%

    Day after tomorrow, 29 June, Saturday

    Time Temperature Precipitation Wind Pressure Humidity
    00:00 +14°C° 0 mm 1 mps 733 mmHg 87%
    01:00 +12°C° 0 mm 0 mps 733 mmHg 89%
    02:00 +12°C° 0 mm 0 mps 733 mmHg 89%
    03:00 +13°C° 0 mm 1 mps 733 mmHg 89%
    04:00 +13°C° 0 mm 1 mps 733 mmHg 89%
    05:00 +15°C° 0 mm 1 mps 733 mmHg 83%
    06:00 +18°C° 0 mm 1 mps 733 mmHg 76%
    07:00 +20°C° 0 mm 1 mps 733 mmHg 69%
    08:00 +21°C° 0 mm 1 mps 733 mmHg 62%
    09:00 +23°C° 0 mm 1 mps 733 mmHg 55%
    10:00 +24°C° 0 mm 1 mps 733 mmHg 48%
    11:00 +25°C° 0 mm 1 mps 733 mmHg 47%
    12:00 +25°C° 0 mm 1 mps 733 mmHg 47%
    13:00 +26°C° 0 mm 1 mps 732 mmHg 46%
    14:00 +26°C° 0 mm 1 mps 732 mmHg 48%
    15:00 +26°C° 0 mm 1 mps 732 mmHg 50%
    16:00 +26°C° 0 mm 1 mps 731 mmHg 52%
    17:00 +25°C° 0 mm 1 mps 731 mmHg 58%
    18:00 +24°C° 0 mm 1 mps 731 mmHg 64%
    19:00 +23°C° 0 mm 1 mps 731 mmHg 71%
    20:00 +22°C° 0 mm 1 mps 731 mmHg 73%
    21:00 +20°C° 0 mm 1 mps 731 mmHg 76%
    22:00 +18°C° 0 mm 2 mps 731 mmHg 79%
    23:00 +18°C° 0 mm 2 mps 731 mmHg 79%

    30 June, Sunday

    Time Temperature Precipitation Wind Pressure Humidity
    00:00 +17°C° 0 mm 2 mps 731 mmHg 78%
    01:00 +17°C° 0 mm 2 mps 731 mmHg 78%
    02:00 +17°C° 0 mm 2 mps 730 mmHg 78%
    03:00 +16°C° 0 mm 2 mps 730 mmHg 78%
    04:00 +16°C° 0 mm 2 mps 730 mmHg 78%
    05:00 +18°C° 0 mm 2 mps 730 mmHg 75%
    06:00 +20°C° 0 mm 2 mps 730 mmHg 71%
    07:00 +23°C° 0 mm 2 mps 730 mmHg 67%
    08:00 +24°C° 0 mm 3 mps 731 mmHg 61%
    09:00 +26°C° 0 mm 3 mps 731 mmHg 56%
    10:00 +27°C° 0 mm 4 mps 731 mmHg 50%
    11:00 +28°C° 0 mm 4 mps 730 mmHg 49%
    12:00 +29°C° 0 mm 5 mps 730 mmHg 47%
    13:00 +29°C° 0 mm 5 mps 729 mmHg 46%
    14:00 +29°C° 0 mm 5 mps 729 mmHg 48%
    15:00 +29°C° 0 mm 5 mps 729 mmHg 50%
    16:00 +29°C° 0 mm 5 mps 728 mmHg 52%
    17:00 +28°C° 0 mm 5 mps 728 mmHg 58%
    18:00 +26°C° 0 mm 5 mps 728 mmHg 64%
    19:00 +25°C° 0 mm 5 mps 728 mmHg 69%
    20:00 +23°C° 0 mm 5 mps 728 mmHg 70%
    21:00 +23°C° 0 mm 5 mps 728 mmHg 70%
    22:00 +22°C° 0 mm 5 mps 728 mmHg 70%
    23:00 +21°C° 0 mm 4 mps 728 mmHg 73%

    1 July, Monday

    Time Temperature Precipitation Wind Pressure Humidity
    00:00 +20°C° 0 mm 4 mps 727 mmHg 76%
    01:00 +20°C° 0 mm 4 mps 727 mmHg 79%
    02:00 +19°C° 0 mm 3 mps 727 mmHg 81%
    03:00 +19°C° 0 mm 3 mps 727 mmHg 83%
    04:00 +18°C° 0 mm 3 mps 727 mmHg 85%
    05:00 +20°C° 0 mm 2 mps 727 mmHg 82%
    06:00 +21°C° 0 mm 2 mps 728 mmHg 80%
    07:00 +24°C° 0 mm 2 mps 728 mmHg 77%
    08:00 +25°C° 0 mm 2 mps 728 mmHg 75%
    09:00 +26°C° 0 mm 2 mps 728 mmHg 72%
    10:00 +27°C° 0 mm 2 mps 728 mmHg 70%
    11:00 +26°C° 0.2 mm 3 mps 728 mmHg 70%
    12:00 +26°C° 0.2 mm 3 mps 728 mmHg 70%
    13:00 +26°C° 0.2 mm 3 mps 727 mmHg 70%
    14:00 +26°C° 0.5 mm 3 mps 727 mmHg 70%
    15:00 +27°C° 0.5 mm 3 mps 727 mmHg 69%
    16:00 +27°C° 0.5 mm 3 mps 727 mmHg 68%
    17:00 +26°C° 0.3 mm 3 mps 727 mmHg 72%
    18:00 +25°C° 0.3 mm 3 mps 727 mmHg 76%
    19:00 +24°C° 0.3 mm 3 mps 727 mmHg 79%
    20:00 +23°C° 0 mm 2 mps 727 mmHg 77%
    21:00 +20°C° 0 mm 2 mps 727 mmHg 74%
    22:00 +19°C° 0 mm 2 mps 727 mmHg 72%
    23:00 +18°C° 0 mm 2 mps 727 mmHg 72%

    2 July, Tuesday

    Time Temperature Precipitation Wind Pressure Humidity
    00:00 +17°C° 0 mm 2 mps 727 mmHg 73%
    01:00 +16°C° 0 mm 2 mps 727 mmHg 73%
    02:00 +16°C° 0 mm 2 mps 728 mmHg 78%
    03:00 +16°C° 0 mm 3 mps 728 mmHg 83%
    04:00 +14°C° 0 mm 3 mps 728 mmHg 88%
    05:00 +16°C° 0 mm 3 mps 728 mmHg 86%
    06:00 +15°C° 0 mm 4 mps 729 mmHg 85%
    07:00 +17°C° 0 mm 4 mps 729 mmHg 83%
    08:00 +18°C° 0 mm 4 mps 729 mmHg 75%
    09:00 +19°C° 0 mm 5 mps 729 mmHg 66%
    10:00 +20°C° 0 mm 5 mps 730 mmHg 58%
    11:00 +20°C° 0 mm 5 mps 730 mmHg 55%
    12:00 +21°C° 0 mm 6 mps 730 mmHg 52%
    13:00 +21°C° 0 mm 6 mps 730 mmHg 49%
    14:00 +21°C° 0 mm 6 mps 729 mmHg 51%
    15:00 +21°C° 0 mm 6 mps 729 mmHg 53%
    16:00 +21°C° 0 mm 6 mps 729 mmHg 55%
    17:00 +20°C° 0 mm 5 mps 729 mmHg 61%
    18:00 +19°C° 0 mm 4 mps 729 mmHg 67%
    19:00 +18°C° 0 mm 3 mps 729 mmHg 72%
    20:00 +16°C° 0 mm 3 mps 730 mmHg 75%
    21:00 +15°C° 0 mm 2 mps 730 mmHg 77%
    22:00 +14°C° 0 mm 2 mps 731 mmHg 79%
    23:00 +13°C° 0 mm 2 mps 731 mmHg 81%
    Show more